GFSSE_850_rhum_021.txt.gz
RH
84 60 53 54 53 55 56 57 60 65 66 66 65 64 46 30 26 22 17 11 9 11 12 14 16 16 18 18 20 22 26 29 36 39 43 46 50 54 61 63 68 83 62
88 65 58 60 59 61 62 63 66 68 66 66 57 38 28 26 18 16 10 12 13 13 13 13 13 13 13 13 13 13 13 16 25 41 53 75 82 57 60 60 62 59 56
89 84 61 63 64 64 66 67 67 69 67 54 36 28 25 18 17 11 12 12 12 12 13 14 15 16 17 18 19 19 18 16 13 48 61 73 70 59 71 67 66 60 58
95 74 66 66 67 68 69 71 70 69 56 36 27 25 19 20 14 13 14 14 17 20 21 22 22 22 20 20 20 20 21 22 39 49 57 58 79 69 72 68 60 55 61
96 94 78 74 72 73 76 74 72 63 40 30 26 25 23 18 15 14 20 27 24 22 22 22 20 20 20 19 19 19 20 43 49 52 59 67 73 65 51 45 41 36 50
93 92 85 80 78 79 80 75 72 50 37 27 29 23 23 16 15 27 26 20 19 20 21 22 25 25 27 28 27 26 24 33 33 35 52 73 81 44 39 42 47 53 46
99 89 89 85 84 84 81 76 61 46 29 28 30 24 19 16 30 30 22 24 25 26 26 26 28 31 32 32 32 32 30 38 42 36 36 58 28 34 49 44 50 55 54
82 95 90 91 89 85 76 62 49 42 26 32 27 24 17 36 35 28 26 27 27 28 29 32 34 34 33 33 33 34 39 37 50 46 40 50 34 30 33 34 38 41 41
70 98 95 93 90 80 70 56 50 38 26 32 25 22 40 37 33 30 31 30 31 33 35 36 37 36 35 37 36 34 51 50 51 46 44 53 38 42 42 39 35 30 28
97 92 88 85 90 72 62 58 51 35 29 30 27 33 44 36 35 39 39 37 36 38 40 41 40 39 42 55 53 45 50 47 49 45 48 50 44 47 47 47 45 41 35
98 79 92 92 95 93 78 58 43 29 31 41 34 43 46 74 74 63 50 40 40 41 42 40 40 41 57 56 53 49 48 51 50 45 52 49 36 46 49 54 53 49 43
91 93 92 84 86 81 77 55 78 53 60 80 78 61 77 80 81 77 56 40 42 43 46 48 54 61 61 58 51 51 53 53 43 44 47 46 42 46 49 51 55 59 53
96 91 86 78 73 79 79 69 63 68 83 90 95 90 88 85 84 75 69 66 72 67 67 64 65 62 71 67 62 62 60 54 44 44 46 47 44 49 52 53 55 59 60
81 96 100 96 76 79 71 62 69 71 81 78 84 94 94 81 85 79 70 70 70 68 69 66 64 70 66 62 60 62 58 55 51 51 46 51 52 49 46 47 48 50 51
62 81 91 91 88 88 74 83 86 84 82 75 78 68 68 86 64 53 67 80 76 72 69 68 65 64 57 56 58 57 60 57 55 53 52 51 53 54 50 42 40 37 36
56 73 80 80 83 78 89 94 96 73 70 71 76 74 74 66 50 62 64 81 77 80 74 70 66 62 60 57 54 53 57 56 56 58 58 57 55 56 53 49 41 35 34
53 69 78 82 84 90 81 64 49 51 51 62 72 82 80 76 75 70 79 75 82 73 70 63 64 58 53 52 54 51 52 47 49 51 54 60 57 57 58 57 54 50 46
52 72 82 84 94 71 64 59 57 60 63 69 74 76 69 74 76 75 79 84 72 64 67 66 60 60 60 56 55 54 50 46 46 51 46 49 64 67 67 66 64 59 43
54 72 94 96 97 63 70 65 71 68 66 78 70 71 67 67 64 76 75 76 53 66 66 67 66 68 65 63 56 51 52 44 48 43 44 47 70 67 68 65 63 57 58
53 73 98 100 98 80 72 74 78 82 89 82 79 76 75 70 51 67 71 56 52 67 70 77 82 76 70 58 51 57 52 44 42 42 53 56 55 54 65 68 65 64 61
71 81 100 86 88 84 99 97 94 83 80 75 70 72 60 57 56 54 66 69 74 75 78 77 77 75 55 46 51 57 55 52 40 41 39 49 58 53 56 58 65 65 66
78 85 98 99 97 98 85 75 72 70 64 62 68 55 60 60 70 66 75 77 76 76 71 66 66 68 59 52 56 58 52 44 37 41 46 50 45 52 51 59 64 64 68
86 94 97 96 90 72 70 75 72 69 64 62 65 63 70 77 76 76 76 77 75 67 58 60 67 75 62 59 54 56 52 46 50 49 45 44 45 50 57 52 54 56 63
86 83 77 75 72 79 63 54 55 52 55 67 63 69 71 75 78 74 69 71 71 67 68 66 57 74 72 62 60 58 60 60 57 48 41 39 42 42 44 46 46 49 52
74 71 70 71 62 62 65 66 62 64 66 66 66 64 57 50 45 44 43 49 69 75 71 74 77 76 72 74 68 68 57 54 48 44 41 38 37 38 39 41 44 47 47
67 69 66 59 62 67 69 73 72 67 59 54 50 41 37 35 35 36 41 48 55 67 75 73 76 81 83 85 65 61 55 48 45 45 44 46 44 40 40 43 44 45 46

GFSSE_850_rhum_024.txt.gz
RH
78 46 54 50 57 61 56 49 54 59 62 62 60 48 30 24 19 14 9 10 12 13 14 13 13 13 13 13 13 13 15 18 24 35 49 72 75 57 40 56 64 58 51
72 46 51 48 52 54 55 61 64 65 64 60 45 30 24 19 16 10 12 12 12 12 12 13 14 16 18 19 19 18 16 14 53 68 73 89 75 58 43 53 60 58 54
64 50 54 55 58 62 68 71 69 66 62 47 30 23 19 18 12 12 12 12 14 16 18 20 20 20 20 20 21 21 26 34 52 60 69 97 80 68 57 62 59 56 60
66 56 58 62 68 72 75 76 72 66 50 32 24 21 19 15 13 13 15 21 23 23 21 19 19 19 19 19 18 26 50 52 52 63 60 91 79 48 51 45 40 42 50
71 70 64 68 72 75 77 79 72 55 35 23 23 19 19 14 14 19 24 21 20 20 19 22 24 26 28 28 27 26 35 35 37 56 55 54 64 29 38 41 43 42 44
94 70 69 78 78 81 81 80 67 40 28 22 23 22 17 14 23 24 20 18 19 22 24 27 31 31 31 30 30 28 32 39 36 39 44 47 21 24 30 35 44 49 48
84 83 88 87 86 85 81 78 54 38 22 23 22 21 14 23 28 21 23 24 25 26 30 33 33 32 32 31 32 35 36 48 48 46 46 43 37 26 25 28 32 37 41
88 68 78 91 90 84 78 68 50 32 23 26 19 18 20 33 27 26 26 28 29 31 34 34 34 34 37 41 40 45 47 44 46 48 51 49 50 37 37 36 32 29 27
86 80 89 99 92 84 78 62 48 27 24 24 20 19 37 34 30 30 31 32 34 35 36 36 35 38 52 52 51 45 49 47 48 54 49 54 52 37 47 47 44 39 34
97 70 96 94 88 75 64 54 39 22 24 24 23 38 34 33 32 34 33 34 37 39 39 38 39 42 57 59 54 48 51 45 46 46 47 49 48 34 46 51 54 52 45
78 80 92 86 77 58 51 52 37 24 27 30 34 47 74 72 74 81 54 35 39 39 40 44 51 59 60 62 59 53 55 49 43 44 44 44 44 39 38 48 56 58 60
78 93 82 68 72 80 61 47 31 30 58 54 45 74 81 80 81 73 59 55 58 56 60 67 66 66 70 66 60 58 59 57 46 46 45 44 45 44 41 45 49 54 60
91 92 88 83 80 89 65 61 59 73 87 91 78 84 83 70 76 79 70 71 68 68 70 68 68 68 66 65 60 61 61 57 53 50 46 50 49 50 49 46 45 47 49
87 78 75 70 76 72 62 62 65 77 84 85 78 80 73 80 80 64 67 69 71 76 72 70 69 66 63 57 56 57 57 60 55 56 55 55 54 54 54 53 49 42 39
81 66 56 73 84 68 69 67 75 75 73 76 79 56 68 87 78 58 49 65 54 72 72 71 70 66 62 60 58 55 53 55 56 56 56 57 58 59 60 57 54 53 44
74 52 44 79 53 73 73 74 68 59 58 60 71 78 68 67 51 56 50 62 70 74 72 70 65 64 60 55 53 53 54 52 48 48 52 52 53 57 62 61 60 60 61
67 79 82 77 60 85 72 70 66 48 50 57 63 67 82 76 76 67 72 76 76 73 69 60 59 60 60 57 54 55 55 53 49 46 46 50 48 50 64 67 66 66 64
62 75 79 78 83 85 72 54 49 45 53 64 62 64 72 66 72 79 76 77 65 61 60 61 61 62 61 64 66 56 54 52 52 42 48 46 45 64 69 70 66 63 62
63 75 79 85 87 71 59 51 58 62 61 63 64 69 66 64 62 73 71 58 52 56 66 69 70 67 69 67 62 49 47 50 48 48 43 42 46 65 68 64 66 66 62
64 75 82 90 69 73 68 68 71 72 78 76 74 74 63 48 46 54 67 63 63 70 73 73 70 72 73 72 50 44 50 57 48 43 49 49 49 53 55 57 61 63 67
59 76 82 88 97 93 78 81 87 88 80 76 73 74 70 62 60 59 65 70 72 73 76 75 64 59 60 57 55 57 56 55 49 40 48 47 49 53 50 53 58 66 65
70 81 80 93 98 90 82 88 86 77 75 70 66 56 60 63 65 68 64 66 73 68 56 53 55 57 69 67 61 54 60 59 53 47 45 48 45 44 47 52 55 54 54
72 77 79 84 94 84 82 74 72 68 63 62 61 66 65 65 66 64 67 66 53 57 62 60 63 64 70 72 58 60 62 65 65 63 56 50 43 39 40 41 44 46 47
75 83 82 83 86 76 71 72 66 57 59 66 65 67 72 73 71 62 52 50 54 59 68 67 70 67 68 70 67 68 67 62 58 57 51 46 40 39 38 39 40 42 43
78 81 82 76 75 75 57 58 62 63 65 66 67 63 56 50 46 39 38 38 33 34 51 65 71 75 78 75 75 77 67 60 55 49 48 49 46 40 43 44 45 46 44
77 73 71 71 63 62 66 66 64 64 61 60 56 47 52 42 36 37 35 26 18 46 55 63 72 75 78 84 79 81 64 60 56 55 58 56 56 54 51 49 50 50 51

GFSSE_850_rhum_030.txt.gz
RH
60 70 81 80 79 73 47 52 57 57 48 27 14 11 9 8 10 10 11 12 13 16 18 18 19 19 20 17 46 62 67 68 69 83 84 72 60 61 60 58 57 56 58
57 74 84 83 80 66 51 59 63 57 35 19 13 10 8 10 10 12 14 17 17 16 16 17 17 22 30 32 54 54 60 62 58 78 70 66 35 45 50 46 48 53 51
80 81 80 75 71 52 59 69 65 46 25 15 12 10 10 10 13 16 18 17 16 17 17 18 20 42 51 49 44 49 60 59 51 44 50 24 21 26 32 38 39 45 54
69 81 80 66 56 55 69 70 58 32 20 15 13 10 11 14 18 17 17 17 19 23 27 28 28 28 36 38 46 39 56 56 49 47 44 43 42 24 24 34 45 50 47
73 78 83 63 54 68 73 68 44 27 20 15 12 12 14 19 16 16 17 21 26 28 28 28 29 29 28 37 51 51 53 60 52 49 45 45 48 29 28 26 28 31 34
74 78 70 58 68 75 74 58 32 21 18 16 12 13 20 16 16 18 21 26 28 29 29 30 36 33 33 36 46 46 50 51 52 54 51 53 49 30 28 33 35 32 30
67 68 65 70 76 78 70 42 26 21 16 15 13 20 17 17 20 23 25 28 29 29 30 36 43 44 42 40 40 43 46 49 51 53 53 47 45 43 32 29 37 41 38
82 80 81 87 83 80 57 35 21 18 15 14 16 23 17 20 24 26 28 29 30 32 36 41 49 51 50 48 48 47 46 46 51 49 48 46 44 43 42 30 35 41 44
98 99 99 93 95 85 57 34 19 22 16 15 22 20 19 23 26 28 29 30 32 36 40 48 54 56 54 51 50 52 49 46 45 45 48 47 45 44 42 41 32 42 48
99 98 96 89 75 61 60 31 21 20 16 18 28 23 21 24 27 29 32 34 35 36 48 59 57 58 60 62 60 55 55 51 50 47 48 46 45 42 49 47 40 37 44
88 90 77 63 82 78 47 26 22 20 19 33 27 25 24 24 28 30 34 40 47 54 65 68 68 67 67 65 64 57 56 54 52 50 46 44 44 49 53 51 48 46 42
71 66 69 70 89 69 43 24 22 18 26 31 28 33 35 55 51 67 65 68 68 70 71 69 71 70 68 64 62 59 58 57 55 55 49 50 56 57 53 54 44 46 50
67 54 71 91 91 59 37 22 24 24 50 60 65 62 59 66 72 76 75 75 73 75 71 70 71 70 66 63 63 59 57 55 54 54 52 55 59 58 56 55 48 52 60
64 62 89 79 74 50 32 25 32 34 68 82 78 71 54 70 68 79 82 76 74 76 73 70 71 70 68 67 65 58 53 54 55 54 51 56 53 54 55 56 52 53 57
70 82 73 78 63 44 36 52 57 61 65 69 72 79 78 86 75 80 77 72 61 64 77 77 74 72 69 67 58 56 54 52 52 48 52 48 48 51 53 61 59 65 65
87 83 83 77 62 67 71 66 66 76 69 62 79 86 71 73 81 78 75 62 55 64 68 77 72 66 54 51 52 52 49 44 39 55 53 52 50 48 46 50 66 69 69
83 88 89 80 67 68 69 74 73 74 89 84 79 76 70 63 64 62 59 70 70 70 69 62 49 48 48 49 53 56 42 41 55 51 50 49 46 44 54 68 76 72 70
82 98 84 77 71 66 66 72 77 82 84 79 69 58 56 54 63 69 75 75 72 54 43 41 42 44 50 58 60 33 30 30 47 46 42 41 48 48 80 80 72 68 66
78 79 78 74 68 70 72 74 74 71 65 60 61 60 60 63 71 73 74 67 50 42 42 45 50 56 64 58 38 31 31 44 60 56 50 51 53 55 66 80 78 68 71
32 42 59 68 72 67 70 69 71 61 56 65 65 65 67 68 59 44 44 46 42 45 50 56 60 61 43 26 24 26 44 48 56 53 46 50 51 49 47 56 53 48 48
41 36 38 38 58 59 73 66 67 54 64 72 71 66 57 45 38 42 43 42 46 54 56 51 39 27 21 20 36 52 51 41 45 52 48 48 52 52 51 45 41 41 44
57 58 51 45 44 52 65 65 58 56 69 76 69 68 49 44 43 44 47 48 45 44 38 24 21 22 26 36 62 70 61 56 57 52 42 47 45 37 37 43 40 41 45
65 62 64 62 62 58 68 75 60 69 77 76 72 70 55 49 50 52 48 48 53 38 24 28 35 45 55 60 72 74 69 66 66 59 59 53 50 46 41 43 43 41 46
57 62 67 69 80 81 81 82 59 71 70 68 68 69 57 56 56 56 52 55 52 37 36 30 20 28 51 67 78 79 79 77 75 73 63 60 55 50 49 46 43 38 42
59 67 62 81 93 92 84 74 72 68 65 66 74 68 62 60 61 53 56 53 41 28 20 11 12 22 49 74 79 82 81 78 78 70 65 62 59 55 56 52 44 53 49
67 76 84 85 84 89 83 83 78 74 75 79 72 68 67 65 54 54 43 39 24 15 11 9 14 48 68 78 83 76 74 76 80 75 72 70 69 67 63 57 52 52 48

GFSSE_850_rhum_036.txt.gz
RH
73 87 85 74 60 43 42 44 39 34 24 14 12 8 8 10 11 11 12 15 17 18 18 18 20 28 41 53 54 64 53 37 41 42 32 22 28 32 33 34 38 48 56
70 83 86 76 60 42 44 43 38 30 14 11 7 9 11 12 14 17 17 16 17 19 20 21 31 42 52 58 45 43 41 43 46 47 39 27 24 24 30 37 37 36 47
71 84 84 78 58 42 45 43 38 19 11 8 10 10 12 16 16 16 16 21 32 36 39 41 44 42 54 62 46 47 48 48 50 50 42 29 27 29 25 24 27 32 35
82 86 87 78 55 45 49 48 30 13 9 9 10 13 16 16 16 17 21 28 41 44 41 38 38 38 45 52 46 50 51 52 53 48 43 42 33 28 32 31 26 24 26
91 90 89 78 51 52 58 44 19 12 9 10 13 16 16 17 20 26 27 28 29 29 32 34 37 39 40 46 49 51 52 52 48 45 37 37 34 34 30 27 33 32 27
94 91 92 76 53 63 56 32 15 10 10 12 16 18 17 21 26 28 29 29 31 32 31 35 35 40 40 38 46 49 45 41 41 43 40 40 36 30 30 31 26 33 37
99 97 95 74 68 67 45 22 13 11 11 15 19 18 20 26 28 29 32 35 38 39 37 38 38 36 39 42 43 42 45 45 44 43 44 39 38 35 35 38 34 31 36
99 100 98 83 78 65 31 18 15 12 14 21 18 17 23 28 30 30 35 39 39 43 44 45 46 49 46 46 47 47 47 46 43 40 40 34 36 36 40 43 40 38 35
98 100 99 100 83 58 26 20 16 14 19 18 17 20 26 31 32 33 36 39 42 43 51 52 53 54 56 58 58 52 48 44 40 39 39 38 33 35 40 38 40 37 35
100 100 97 99 78 44 26 20 17 14 24 19 19 25 30 33 34 34 37 37 41 46 49 57 58 60 60 62 62 62 61 48 42 44 46 49 49 40 41 46 44 42 34
95 97 100 78 50 35 28 26 22 17 17 19 25 29 32 35 35 35 36 40 44 52 54 57 62 64 64 65 64 65 64 53 50 51 51 52 54 72 53 48 46 43 44
98 92 82 77 60 54 47 41 31 20 21 23 29 31 32 33 35 36 38 42 54 57 60 63 64 67 68 66 66 64 60 55 54 53 52 51 52 76 74 62 51 50 50
74 86 82 74 73 60 49 30 24 19 31 27 29 31 33 33 34 41 55 60 60 65 69 69 65 68 69 68 65 62 59 54 54 53 52 50 47 64 73 70 62 55 60
88 84 84 73 67 57 36 28 22 29 33 30 37 35 42 41 46 60 61 65 70 72 71 64 70 72 72 70 67 63 57 54 51 49 41 40 52 52 78 61 64 64 65
68 64 68 76 72 56 30 32 25 39 38 39 62 70 64 60 63 65 68 72 73 70 66 72 74 75 76 71 62 54 52 51 48 32 19 30 48 52 50 74 74 78 76
69 67 78 85 73 47 35 33 31 42 53 66 69 70 58 62 65 68 71 75 72 70 72 78 80 78 68 53 51 54 53 44 22 12 13 23 32 42 46 72 83 97 98
69 61 66 82 84 61 42 38 35 59 76 76 69 74 79 70 70 82 81 79 77 70 78 78 71 52 49 51 52 50 32 17 15 25 31 34 35 28 34 60 84 91 90
57 70 73 70 71 62 40 51 37 71 78 76 77 77 78 76 76 85 82 75 71 77 75 53 46 48 50 49 39 18 15 20 32 38 46 52 44 40 54 73 86 84 79
57 70 68 66 70 56 43 71 74 63 71 78 71 70 78 77 82 87 79 79 83 77 52 49 50 50 46 26 18 13 17 26 31 39 45 41 37 48 57 80 82 80 78
65 72 68 69 65 58 57 77 86 88 87 86 84 85 72 64 70 85 88 90 79 55 51 52 51 38 24 18 16 18 20 23 39 44 45 48 50 39 38 49 50 46 43
72 68 65 65 67 67 70 76 79 80 85 91 89 78 65 67 74 89 90 79 56 54 55 51 39 30 25 18 14 17 26 33 38 43 50 49 51 46 41 38 39 39 40
56 60 64 69 71 72 71 71 78 75 84 89 77 67 72 72 83 86 75 58 57 58 54 49 39 28 17 11 13 20 29 38 56 54 57 57 58 57 49 52 54 47 46
49 52 60 66 65 69 74 73 73 82 90 81 73 74 73 72 74 70 63 60 61 56 53 49 30 15 10 8 12 25 46 58 62 59 56 60 60 62 55 56 61 57 53
56 56 59 58 62 70 70 69 71 72 79 78 75 72 75 69 64 61 61 62 58 55 50 42 25 28 28 11 11 29 50 70 82 83 73 75 75 70 68 66 59 68 63
58 60 61 62 60 78 72 71 77 83 83 84 78 80 80 74 70 68 65 64 56 52 55 68 58 61 48 8 12 31 62 73 73 74 83 77 69 71 78 73 80 78 70
55 58 58 58 57 67 71 70 76 81 87 91 87 86 82 77 76 71 67 62 52 53 70 76 77 32 10 9 19 41 61 67 71 77 73 71 75 73 88 88 93 85 78